Weather Roundup
Issued by NWS Chicago, IL

Home | Current Version | Previous Version | Graphics & Text | Print | Product List | Glossary On
Versions: 1 2 3 4 5 6 7 8 9 10 11 12 13 14 15 16 17 18 19 20 21 22 23 24 25 26 27 28 29 30 31 32 33 34 35 36 37 38 39 40 41 42 43 44 45 46 47 48 49 50
000
NZUS59 KLOT 311412
HRRLOT

CHICAGO AREA WEATHER ROUNDUP
NATIONAL WEATHER SERVICE CHICAGO/ROMEOVILLE IL
900 AM CDT MON AUG 31 2015

NOTE: "FAIR" INDICATES FEW OR NO CLOUDS BELOW 12,000 FEET WITH NO
SIGNIFICANT WEATHER AND/OR OBSTRUCTIONS TO VISIBILITY.

* THESE STATIONS ARE NOT UNDER NWS QUALITY CONTROL. THEY ALSO MAY NOT
  REPORT WEATHER SUCH AS PRECIPITATION OR FOG.

ILZ005-006-012>014-019>023-311500-
NORTHEAST ILLINOIS

CITY           SKY/WX    TMP DP  RH WIND       PRES   REMARKS
OHARE          MOSUNNY   67  65  93 NW3       30.07S FOG
MIDWAY         SUNNY     72  66  81 CALM      30.07S HAZE
AURORA         CLOUDY    67  65  93 CALM      30.09R FOG
LANSING*       CLOUDY    68  68 100 CALM      30.09R FOG
JOLIET*        SUNNY     71  68  89 CALM      30.08S FOG
WAUKEGAN       SUNNY     66  65  96 SW3       30.07S FOG
DUPAGE AIRPORT SUNNY     68  64  87 CALM      30.08R FOG
WHEELING       SUNNY     65  63  93 CALM      30.09R FOG
KANKAKEE*      FOG       68  68 100 CALM      30.09S VSB 1/2
MORRIS*        PTSUNNY   67  67  98 CALM      30.07S FOG
LEWIS AIRPORT* SUNNY     69  69 100 CALM      30.08S FOG
NORTHERLY IS     N/A     72  65  78 CALM        N/A
$$

WIZ051-052-058>065-066-070>072-311500-
SOUTHEAST WISCONSIN

CITY           SKY/WX    TMP DP  RH WIND       PRES   REMARKS
MILWAUKEE      MOSUNNY   66  64  93 SW5       30.07S FOG
KENOSHA*       SUNNY     66  65  96 SW3       30.09R
RACINE*        SUNNY     68  64  87 SW3       30.09R
BURLINGTON     PTSUNNY   62  62  99 CALM      30.08S FOG
WAUKESHA       SUNNY     63  63 100 CALM      30.08S FOG
WEST BEND      PTSUNNY   64  64 100 CALM      30.06F
$$

INZ001>003-010>013-019-020-311500-
NORTHWEST INDIANA

CITY           SKY/WX    TMP DP  RH WIND       PRES   REMARKS
GARY*          MOSUNNY   73  68  83 CALM      30.09R HAZE
MICHIGAN CITY* NOT AVBL
RENSSELAER*    NOT AVBL
VALPARAISO     FOG       68  67  96 MISG      30.10R VSB<1/4
$$

LMZ740>746-311500-
SOUTHERN LAKE MICHIGAN

STATION/POSITION TIME  SKY/WX   TEMP WIND        PRES    VSBY
                                AIR  DIR/SP/G
                 (UTC)          (F)  (DEG/KT/KT) (MB)    (MI)
HARRISON CRIB    1300            68  300/  4/  4   N/A
BURNHAM HARBOR   1300            69  260/  2/  5   N/A
CALUMET HARBOR   NOT AVBL
BURNS HARBOR     1300            68  270/  2/  5 1019.0
MICHIGAN CITY    1300            67  180/  3/  3   N/A
$$

ABBREVIATIONS USED IN REMARKS
   TC - TEMPERATURE IN CELSIUS
  WCI - WIND CHILL INDEX
   HX - HEAT INDEX
  VSB - VISIBILITY
$$



USA.gov is the U.S. government's official web portal to all federal, state and local government web resources and services.